[[{"header":{"parameterUnit":"m.s-1","parameterCategory":1,"la1":30.2991,"la2":30.254,"lo1":-89.0895,"lo2":-89.0444,"dy":0.0017,"dx":0.0017,"nx":28,"ny":28,"refTime":"2024-06-04T21:00:00:Z","depth":0,"parameterNumber":2,"parameterNumberName":"U-component_of_WINDS"},"data":[0,0,0,0,0,0,0,0,0,0,0,0,0,0,0,0,0,0,0,0,0,0,0,0,0,0,0,0,0,0,0,0,0,0,0,0,0,0,0,0,0,0,0,0,0,0,0,0,0,0,0,0,0,0,0,0,0,0,-0.7375,-0.7374,0,-0.7349,-0.7349,-0.7348,-0.7328,-0.7328,-0.7328,-0.7328,-0.7303,-0.7302,-0.7302,0,0,0,0,0,0,0,0,0,0,0,0,0,-0.7409,-0.7408,-0.7375,-0.7374,-0.7374,-0.7349,-0.7349,-0.7348,-0.7329,-0.7328,-0.7328,-0.7328,-0.7303,-0.7302,-0.7302,0,0,0,0,0,0,0,0,0,0,0,0,0,-0.739,-0.7408,-0.7375,-0.7361,-0.736,-0.7349,-0.7349,-0.7348,-0.7329,-0.7328,-0.7328,-0.7328,-0.7303,-0.7302,-0.7302,-0.7303,0,0,-0.7299,-0.7299,0,0,0,0,0,0,0,0,-0.7391,-0.7389,-0.7363,-0.7362,-0.736,-0.7342,-0.7351,-0.7333,-0.7329,-0.734,-0.7328,-0.7328,-0.7316,-0.7314,-0.731,-0.7301,-0.73,-0.7299,-0.7299,-0.7298,-0.7298,0,0,0,0,0,0,0,-0.7392,-0.739,-0.7364,-0.7363,-0.7361,-0.7357,-0.7354,-0.7348,-0.733,-0.7339,-0.7338,-0.7335,-0.7315,-0.7311,-0.7309,-0.73,-0.7299,-0.7299,-0.7298,-0.7298,-0.7293,-0.7293,0,0,0,0,0,0,-0.7395,-0.7391,-0.7365,-0.7364,-0.7375,-0.7357,-0.7353,-0.7348,-0.733,-0.7327,-0.7335,-0.7334,-0.7312,-0.731,-0.7308,-0.7309,-0.7298,-0.7298,-0.7297,-0.7292,-0.7293,-0.7293,0,0,0,0,0,0,-0.7396,-0.7393,-0.7366,-0.7377,-0.7373,-0.7356,-0.7351,-0.7348,-0.7343,-0.7327,-0.7324,-0.7334,-0.7312,-0.7309,-0.7304,-0.7308,-0.7297,-0.7297,-0.7292,-0.7293,-0.7293,-0.7311,0,0,0,0,0,0,-0.7397,-0.7394,-0.7393,-0.7377,-0.7373,-0.7362,-0.7351,-0.7347,-0.7342,-0.734,-0.7325,-0.7322,-0.7311,-0.7306,-0.7304,-0.7307,-0.7296,-0.7292,-0.7292,-0.7293,-0.731,-0.7312,-0.7313,0,0,0,0,0,-0.7399,-0.7399,-0.7393,-0.739,-0.7372,-0.7363,-0.736,-0.7347,-0.7342,-0.7342,-0.7332,-0.7323,-0.7308,-0.7305,-0.7303,-0.7306,-0.7291,-0.7292,-0.7293,-0.7309,-0.7311,-0.7313,0,0,0,0,0,0,-0.7416,-0.7397,-0.739,-0.7385,-0.7376,-0.7359,-0.7359,-0.735,-0.7342,-0.7341,-0.7326,-0.7323,-0.732,-0.7312,-0.731,-0.7307,-0.7299,-0.7299,-0.7312,-0.7314,-0.7315,-0.7317,-0.7296,0,0,0,0,0,-0.742,-0.7413,-0.7397,-0.7394,-0.739,-0.7375,-0.7371,-0.7362,-0.7352,-0.7347,-0.7337,-0.7328,-0.7321,-0.7317,-0.731,-0.7309,-0.7306,-0.731,-0.7311,-0.7313,-0.7313,-0.7313,-0.7315,-0.7295,-0.7295,-0.7295,0,0,-0.7427,-0.7415,-0.7412,-0.7398,-0.7389,-0.7384,-0.7372,-0.7366,-0.7363,-0.7347,-0.7342,-0.7334,-0.7323,-0.732,-0.7318,-0.7314,-0.7318,-0.7314,-0.7315,-0.7315,-0.7314,-0.7316,-0.7318,-0.7296,-0.7296,-0.7296,0,0,-0.7436,-0.7427,-0.7424,-0.7416,-0.7404,-0.7394,-0.7394,-0.7379,-0.7373,-0.7368,-0.7356,-0.7352,-0.734,-0.7333,-0.7328,-0.7337,-0.7328,-0.7335,-0.7345,-0.7345,-0.7346,-0.7348,-0.7352,-0.7353,-0.7336,-0.7336,-0.7336,0,-0.7446,-0.7437,-0.7424,-0.7419,-0.7414,-0.74,-0.7398,-0.7391,-0.7377,-0.7374,-0.7369,-0.7355,-0.7346,-0.7342,-0.7345,-0.7341,-0.734,-0.7337,-0.7347,-0.7348,-0.7349,-0.7353,-0.7354,-0.7337,-0.7336,-0.7336,-0.7336,0,-0.7451,-0.7445,-0.7445,-0.7432,-0.7426,-0.7423,-0.741,-0.7406,-0.7398,-0.7389,-0.7385,-0.7374,-0.7365,-0.7364,-0.7356,-0.7359,-0.7357,-0.735,-0.7341,-0.7352,-0.7356,-0.7357,-0.7338,-0.7338,-0.7337,-0.7337,0,0,-0.747,-0.7451,-0.7451,-0.7445,-0.7431,-0.7427,-0.7424,-0.7415,-0.7412,-0.7404,-0.7401,-0.7393,-0.7386,-0.7381,-0.7372,-0.7372,-0.7381,-0.7365,-0.7365,-0.7369,-0.7385,-0.7391,-0.7392,-0.7376,-0.7376,-0.7376,-0.7386,0,-0.7478,-0.7471,-0.7459,-0.7456,-0.7451,-0.7438,-0.7436,-0.7427,-0.742,-0.7415,-0.7407,-0.7401,-0.7393,-0.739,-0.7389,-0.738,-0.7384,-0.7379,-0.7374,-0.7374,-0.7377,-0.7394,-0.7399,-0.741,-0.7387,-0.7388,-0.7388,0,-0.7486,-0.7478,-0.7475,-0.7462,-0.746,-0.7457,-0.7449,-0.7445,-0.7436,-0.743,-0.7424,-0.7415,-0.7412,-0.7405,-0.7401,-0.7398,-0.7395,-0.739,-0.7391,-0.739,-0.7381,-0.7394,-0.7412,-0.7414,-0.7389,-0.7389,-0.7389,0,-0.7501,-0.749,-0.7486,-0.7482,-0.7467,-0.7466,-0.746,-0.7451,-0.7447,-0.744,-0.7438,-0.743,-0.7427,-0.7422,-0.7411,-0.7407,-0.7409,-0.74,-0.7405,-0.7405,-0.7406,-0.7406,-0.7425,-0.7404,-0.7404,-0.7404,-0.7404,0,-0.7511,-0.7509,-0.7493,-0.7491,-0.749,-0.7477,-0.7476,-0.7469,-0.7461,-0.7458,-0.7447,-0.7444,-0.7431,-0.7427,-0.7419,-0.7418,-0.7416,-0.7412,-0.741,-0.7413,-0.7414,-0.7411,-0.741,-0.7404,-0.7404,-0.7404,-0.7404,0,-0.7527,-0.7516,-0.7512,-0.7499,-0.7496,-0.7495,-0.7484,-0.7482,-0.7475,-0.7471,-0.747,-0.7457,-0.7453,-0.7442,-0.7434,-0.7429,-0.743,-0.7426,-0.7433,-0.7431,-0.7437,-0.7437,-0.7455,-0.7457,-0.7434,-0.7435,-0.7435,0,-0.7534,-0.7533,-0.752,-0.7517,-0.7512,-0.7507,-0.7503,-0.7492,-0.7488,-0.7479,-0.7478,-0.7473,-0.7467,-0.7461,-0.7451,-0.7446,-0.7442,-0.7448,-0.7441,-0.7444,-0.7442,-0.7443,-0.7443,-0.745,-0.745,-0.7451,-0.7451,0,-0.7548,-0.7543,-0.7538,-0.7531,-0.7527,-0.7521,-0.7515,-0.7513,-0.75,-0.7497,-0.7492,-0.7488,-0.7481,-0.7476,-0.7469,-0.7463,-0.7455,-0.7454,-0.7454,-0.7458,-0.7462,-0.746,-0.7438,-0.7453,-0.7453,-0.7453,-0.7453,-0.7452,-0.7561,-0.7559,-0.755,-0.7545,-0.7539,-0.7534,-0.7532,-0.7524,-0.752,-0.7513,-0.7506,-0.7502,-0.7495,-0.7485,-0.748,-0.7477,-0.7473,-0.7474,-0.7474,-0.7475,-0.7477,-0.7463,-0.7476,-0.7476,-0.7476,-0.7476,-0.7476,0,-0.7575,-0.7569,-0.7564,-0.7556,-0.7552,-0.7545,-0.7538,-0.7535,-0.7532,-0.7525,-0.7521,-0.7516,-0.7511,-0.7502,-0.7497,-0.7497,-0.7493,-0.7496,-0.7496,-0.7495,-0.748,-0.748,-0.7499,-0.7499,-0.7499,-0.7499,-0.7499,-0.7499,-0.7581,-0.7579,-0.7574,-0.7569,-0.7563,-0.7559,-0.7556,-0.7551,-0.7546,-0.7541,-0.7537,-0.7531,-0.7524,-0.7518,-0.7514,-0.7512,-0.7511,-0.7515,-0.7511,-0.7498,-0.7496,-0.7494,-0.7494,-0.7515,-0.7515,-0.7526,-0.7526,-0.7526]},{"header":{"parameterUnit":"m.s-1","parameterCategory":1,"la1":30.2991,"la2":30.254,"lo1":-89.0895,"lo2":-89.0444,"dy":0.0017,"dx":0.0017,"nx":28,"ny":28,"refTime":"2024-06-04T21:00:00:Z","depth":0,"parameterNumber":3,"parameterNumberName":"V-component_of_WINDS"},"data":[0,0,0,0,0,0,0,0,0,0,0,0,0,0,0,0,0,0,0,0,0,0,0,0,0,0,0,0,0,0,0,0,0,0,0,0,0,0,0,0,0,0,0,0,0,0,0,0,0,0,0,0,0,0,0,0,0,0,6.0146,6.0145,0,6.0113,6.0113,6.0112,6.0031,6.0029,6.0028,6.0026,5.9995,5.9996,5.9997,0,0,0,0,0,0,0,0,0,0,0,0,0,6.0141,6.0142,6.0146,6.0145,6.0145,6.0113,6.0113,6.0112,6.0031,6.0029,6.0027,6.0025,5.9995,5.9996,5.9997,0,0,0,0,0,0,0,0,0,0,0,0,0,6.013,6.0142,6.0146,6.0101,6.0096,6.0113,6.0112,6.0112,6.0032,6.0029,6.0027,6.0024,5.9995,5.9996,5.9997,6.0056,0,0,6.0001,6.0001,0,0,0,0,0,0,0,0,6.013,6.013,6.0108,6.0104,6.0099,6.0073,6.01,6.0093,6.0032,6.0056,6.0026,6.0023,6.0024,6.0022,6.0022,6.0054,6.0053,6.0001,6.0001,6.0002,6.0002,0,0,0,0,0,0,0,6.0131,6.0131,6.0133,6.0108,6.0102,6.0083,6.0079,6.0098,6.0055,6.0054,6.0048,6.0045,6.0021,6.0021,6.002,6.0052,6.0001,6.0002,6.0002,6.0003,6.0132,6.0134,0,0,0,0,0,0,6.0138,6.0132,6.0134,6.0132,6.0109,6.0085,6.008,6.0084,6.0054,6.0047,6.0047,6.0042,6.002,6.0019,6.0019,6.0085,6.0002,6.0003,6.0004,6.0129,6.0132,6.0135,0,0,0,0,0,0,6.0138,6.0139,6.0135,6.013,6.0128,6.0088,6.0093,6.0085,6.0085,6.0049,6.0042,6.0055,6.0018,6.0017,6.0047,6.0083,6.0003,6.0005,6.0126,6.013,6.0134,6.0219,0,0,0,0,0,0,6.0139,6.014,6.0161,6.0131,6.0129,6.0163,6.0096,6.0086,6.0087,6.0079,6.0055,6.0048,6.0016,6.0046,6.0048,6.0083,6.0005,6.0122,6.0127,6.0132,6.0213,6.0225,6.0236,0,0,0,0,0,6.0139,6.0187,6.0162,6.0163,6.0154,6.0165,6.0164,6.0125,6.009,6.0111,6.0089,6.0049,6.0079,6.0049,6.0051,6.0088,6.012,6.0126,6.0132,6.0207,6.0223,6.0236,0,0,0,0,0,0,6.0222,6.0182,6.0154,6.0194,6.0184,6.0151,6.0177,6.0143,6.0142,6.0135,6.0088,6.0083,6.0119,6.0106,6.0074,6.0143,6.0093,6.01,6.015,6.0164,6.0176,6.0178,6.0006,0,0,0,0,0,6.0245,6.0256,6.0221,6.026,6.0256,6.0218,6.0221,6.0192,6.0179,6.0175,6.0154,6.0144,6.0151,6.0157,6.0162,6.0211,6.0205,6.0237,6.0249,6.0259,6.0265,6.029,6.0304,6.0155,6.0155,6.0155,0,0,6.0293,6.0272,6.0282,6.0276,6.0264,6.0278,6.0214,6.0231,6.0241,6.0178,6.0204,6.0189,6.0175,6.0214,6.0231,6.0205,6.0305,6.0266,6.0275,6.0275,6.0298,6.0312,6.0324,6.0159,6.0159,6.0158,0,0,6.0386,6.0372,6.0402,6.0392,6.0375,6.0349,6.0357,6.033,6.0317,6.0342,6.0295,6.0307,6.032,6.0312,6.031,6.0402,6.0365,6.0405,6.0466,6.0491,6.0503,6.0513,6.0545,6.0557,6.0411,6.0411,6.0412,0,6.0447,6.0465,6.0422,6.0442,6.0441,6.0383,6.0414,6.0407,6.0393,6.0394,6.0365,6.038,6.0367,6.0404,6.0426,6.0427,6.0434,6.0407,6.0504,6.0514,6.0523,6.0553,6.0566,6.0416,6.0416,6.0415,6.0415,0,6.0541,6.0554,6.0581,6.0568,6.057,6.0595,6.0557,6.0565,6.0536,6.0514,6.0541,6.0523,6.0523,6.053,6.0503,6.0563,6.0548,6.0513,6.0461,6.0543,6.057,6.0582,6.0423,6.0421,6.042,6.0419,0,0,6.0685,6.0648,6.0659,6.0652,6.063,6.0639,6.0663,6.0662,6.0669,6.0662,6.0681,6.0694,6.0661,6.0659,6.063,6.0652,6.0726,6.0614,6.0613,6.0635,6.0791,6.0818,6.0832,6.0702,6.0704,6.0705,6.0792,0,6.0772,6.0808,6.0771,6.0816,6.0827,6.0774,6.0794,6.0783,6.0764,6.0772,6.075,6.076,6.0716,6.0715,6.0734,6.0713,6.0756,6.0706,6.0719,6.072,6.0723,6.0846,6.0874,6.0956,6.0803,6.0805,6.0806,0,6.0878,6.0875,6.0921,6.0895,6.0899,6.0918,6.0914,6.0922,6.091,6.0894,6.0892,6.0857,6.0879,6.083,6.086,6.0827,6.083,6.0821,6.0823,6.0822,6.0767,6.0848,6.0982,6.0994,6.0823,6.0822,6.082,0,6.0978,6.0985,6.1013,6.1009,6.0981,6.0996,6.0985,6.0969,6.0971,6.0969,6.097,6.0971,6.0971,6.0973,6.0939,6.0907,6.0974,6.0922,6.0962,6.0963,6.0978,6.0977,6.1113,6.0982,6.0981,6.0981,6.0981,0,6.1079,6.1109,6.1057,6.1075,6.1107,6.1064,6.1098,6.1082,6.1068,6.1082,6.1037,6.1051,6.1006,6.1016,6.0991,6.1019,6.102,6.1009,6.1001,6.1012,6.1014,6.1013,6.1006,6.0984,6.0984,6.0983,6.0982,0,6.1195,6.1162,6.1189,6.116,6.1153,6.1178,6.1154,6.1169,6.1147,6.1165,6.1167,6.1132,6.1142,6.1109,6.1113,6.1096,6.1138,6.1122,6.1142,6.1137,6.1179,6.1175,6.1319,6.1335,6.1194,6.1195,6.1196,0,6.1261,6.1282,6.1256,6.1261,6.1252,6.1262,6.1264,6.1223,6.1227,6.1214,6.1232,6.1237,6.1239,6.1257,6.1232,6.1236,6.1219,6.1269,6.1219,6.1229,6.1219,6.1217,6.1219,6.1279,6.1281,6.1282,6.1283,0,6.1381,6.1364,6.1368,6.1366,6.1369,6.1366,6.136,6.1368,6.1325,6.1332,6.134,6.1342,6.1346,6.1352,6.135,6.1339,6.1305,6.13,6.1309,6.132,6.133,6.1325,6.117,6.1296,6.1295,6.1294,6.1293,6.1293,6.1474,6.149,6.1474,6.148,6.1471,6.1467,6.1479,6.1459,6.1465,6.1464,6.1441,6.1454,6.1441,6.1435,6.1428,6.1439,6.1416,6.1429,6.1433,6.1436,6.1443,6.133,6.1439,6.1438,6.1438,6.1438,6.1437,0,6.1591,6.1578,6.1584,6.1577,6.1582,6.1548,6.154,6.1546,6.1558,6.1549,6.1552,6.1562,6.1568,6.1545,6.1548,6.1561,6.1545,6.1563,6.1561,6.1559,6.1464,6.1455,6.1575,6.1575,6.1575,6.1575,6.1575,6.1575,6.1653,6.1679,6.166,6.1682,6.1669,6.1681,6.1679,6.1675,6.1667,6.1681,6.1685,6.1669,6.1655,6.1656,6.1661,6.1654,6.1657,6.168,6.1668,6.1579,6.1566,6.1553,6.1545,6.1681,6.1682,6.1762,6.1763,6.1763]}]]